contact:dominique.lefevre@mio.osupytheas.fr, maurice.libes@osupytheas.fr, didier.mallarino@osupytheas.fr
Project:EMSO http://www.emso-fr.org/EMSO-France
Depth: 2436.0 m
Title:EMSO Ligure Ouest : Data MII capteur CSTAR
DateTime,Latitude,Longitude,Instrument_Serial,Reference_Counts,Signal_Counts,Corrected_Signal_raw_counts,Calculated_Beam_c_inverse_meters,Internal_thermistor_counts
DateTime,Latitude,Longitude,Instrument_Serial,Reference_Counts,Signal_Counts,Corrected_Signal_raw_counts,Calculated_Beam_c_inverse_meters,Internal_thermistor_counts
2023-02-16T00:01:40,42.805,6.029,CST-1368DR,4382,4892,11861,01.100,551
2023-02-16T00:04:41,42.805,6.029,CST-1368DR,4382,4893,11863,01.099,551
2023-02-16T00:07:43,42.805,6.029,CST-1368DR,4382,4893,11865,01.099,551
2023-02-16T00:10:44,42.805,6.029,CST-1368DR,4382,4893,11863,01.099,551
2023-02-16T00:13:46,42.805,6.029,CST-1368DR,4382,4893,11863,01.099,551
2023-02-16T00:16:47,42.805,6.029,CST-1368DR,4382,4892,11862,01.100,551
2023-02-16T00:19:49,42.805,6.029,CST-1368DR,4382,4894,11866,01.098,551
2023-02-16T00:22:51,42.805,6.029,CST-1368DR,4382,4890,11856,01.102,551
2023-02-16T00:25:52,42.805,6.029,CST-1368DR,4382,4890,11857,01.102,551
2023-02-16T00:28:54,42.805,6.029,CST-1368DR,4382,4892,11862,01.100,551
2023-02-16T00:31:55,42.805,6.029,CST-1368DR,4382,4892,11860,01.100,551
2023-02-16T00:34:57,42.805,6.029,CST-1368DR,4382,4893,11863,01.099,551
2023-02-16T00:37:58,42.805,6.029,CST-1368DR,4382,4893,11863,01.099,551
2023-02-16T00:41:00,42.805,6.029,CST-1368DR,4382,4894,11865,01.099,551
2023-02-16T00:44:02,42.805,6.029,CST-1368DR,4382,4894,11865,01.099,551
2023-02-16T00:47:03,42.805,6.029,CST-1368DR,4382,4893,11863,01.099,551
2023-02-16T00:50:05,42.805,6.029,CST-1368DR,4382,4895,11868,01.098,551
2023-02-16T00:53:06,42.805,6.029,CST-1368DR,4382,4895,11868,01.098,551
2023-02-16T00:56:08,42.805,6.029,CST-1368DR,4382,4894,11867,01.098,551
2023-02-16T00:59:10,42.805,6.029,CST-1368DR,4382,4894,11865,01.099,551
2023-02-16T01:02:11,42.805,6.029,CST-1368DR,4382,4894,11866,01.098,551
2023-02-16T01:05:13,42.805,6.029,CST-1368DR,4382,4895,11868,01.098,551
2023-02-16T01:08:14,42.805,6.029,CST-1368DR,4382,4894,11867,01.098,551
2023-02-16T01:11:16,42.805,6.029,CST-1368DR,4382,4894,11867,01.098,551
2023-02-16T01:14:17,42.805,6.029,CST-1368DR,4382,4893,11865,01.099,551
2023-02-16T01:17:19,42.805,6.029,CST-1368DR,4382,4894,11867,01.098,551
2023-02-16T01:20:21,42.805,6.029,CST-1368DR,4382,4894,11867,01.098,551
2023-02-16T01:23:22,42.805,6.029,CST-1368DR,4382,4894,11865,01.099,551
2023-02-16T01:26:24,42.805,6.029,CST-1368DR,4382,4894,11866,01.098,551
2023-02-16T01:29:25,42.805,6.029,CST-1368DR,4382,4893,11865,01.099,551
2023-02-16T01:32:27,42.805,6.029,CST-1368DR,4382,4891,11859,01.101,551
2023-02-16T01:35:28,42.805,6.029,CST-1368DR,4382,4893,11865,01.099,551
2023-02-16T01:38:30,42.805,6.029,CST-1368DR,4382,4893,11863,01.099,551
2023-02-16T01:41:32,42.805,6.029,CST-1368DR,4382,4890,11857,01.102,551
2023-02-16T01:44:33,42.805,6.029,CST-1368DR,4382,4892,11862,01.100,551
2023-02-16T01:47:35,42.805,6.029,CST-1368DR,4382,4893,11863,01.099,551
2023-02-16T01:50:36,42.805,6.029,CST-1368DR,4382,4894,11866,01.098,551
2023-02-16T01:53:38,42.805,6.029,CST-1368DR,4382,4893,11863,01.099,551
2023-02-16T01:56:39,42.805,6.029,CST-1368DR,4382,4892,11862,01.100,551
2023-02-16T01:59:41,42.805,6.029,CST-1368DR,4382,4893,11863,01.099,551
2023-02-16T02:02:43,42.805,6.029,CST-1368DR,4382,4895,11868,01.098,551
2023-02-16T02:05:44,42.805,6.029,CST-1368DR,4382,4895,11868,01.098,551
2023-02-16T02:08:46,42.805,6.029,CST-1368DR,4382,4894,11867,01.098,551
2023-02-16T02:11:47,42.805,6.029,CST-1368DR,4382,4893,11863,01.099,551
2023-02-16T02:14:49,42.805,6.029,CST-1368DR,4382,4896,11870,01.097,551
2023-02-16T02:17:51,42.805,6.029,CST-1368DR,4382,4895,11868,01.098,551
2023-02-16T02:20:52,42.805,6.029,CST-1368DR,4382,4894,11866,01.098,551
2023-02-16T02:23:54,42.805,6.029,CST-1368DR,4382,4893,11865,01.099,551
2023-02-16T02:26:55,42.805,6.029,CST-1368DR,4382,4892,11861,01.100,551
2023-02-16T02:29:57,42.805,6.029,CST-1368DR,4382,4892,11862,01.100,551
2023-02-16T02:32:58,42.805,6.029,CST-1368DR,4382,4894,11866,01.098,551
2023-02-16T02:36:00,42.805,6.029,CST-1368DR,4382,4893,11865,01.099,551
2023-02-16T02:39:02,42.805,6.029,CST-1368DR,4382,4893,11863,01.099,551
2023-02-16T02:42:03,42.805,6.029,CST-1368DR,4382,4894,11867,01.098,551
2023-02-16T02:45:05,42.805,6.029,CST-1368DR,4382,4894,11865,01.099,551
2023-02-16T02:48:06,42.805,6.029,CST-1368DR,4382,4895,11868,01.098,551
2023-02-16T02:51:08,42.805,6.029,CST-1368DR,4382,4893,11863,01.099,551
2023-02-16T02:54:09,42.805,6.029,CST-1368DR,4382,4893,11863,01.099,551
2023-02-16T02:57:11,42.805,6.029,CST-1368DR,4382,4892,11862,01.100,551
2023-02-16T03:00:13,42.805,6.029,CST-1368DR,4382,4894,11867,01.098,551
2023-02-16T03:03:14,42.805,6.029,CST-1368DR,4382,4892,11862,01.100,551
2023-02-16T03:06:16,42.805,6.029,CST-1368DR,4382,4893,11865,01.099,551
2023-02-16T03:09:17,42.805,6.029,CST-1368DR,4382,4893,11865,01.099,551
2023-02-16T03:12:19,42.805,6.029,CST-1368DR,4382,4893,11863,01.099,551
2023-02-16T03:15:21,42.805,6.029,CST-1368DR,4382,4891,11860,01.100,551
2023-02-16T03:18:22,42.805,6.029,CST-1368DR,4382,4888,11853,01.103,551
2023-02-16T03:21:24,42.805,6.029,CST-1368DR,4382,4892,11860,01.100,551
2023-02-16T03:24:25,42.805,6.029,CST-1368DR,4382,4892,11862,01.100,551
2023-02-16T03:27:27,42.805,6.029,CST-1368DR,4382,4892,11862,01.100,551
2023-02-16T03:30:28,42.805,6.029,CST-1368DR,4382,4890,11857,01.102,551
2023-02-16T03:33:30,42.805,6.029,CST-1368DR,4382,4892,11862,01.100,551
2023-02-16T03:36:32,42.805,6.029,CST-1368DR,4382,4892,11862,01.100,551
2023-02-16T03:39:33,42.805,6.029,CST-1368DR,4382,4890,11857,01.102,551
2023-02-16T03:42:35,42.805,6.029,CST-1368DR,4382,4890,11857,01.102,551
2023-02-16T03:45:36,42.805,6.029,CST-1368DR,4382,4893,11863,01.099,551
2023-02-16T03:48:38,42.805,6.029,CST-1368DR,4382,4893,11863,01.099,551
2023-02-16T03:51:39,42.805,6.029,CST-1368DR,4382,4889,11855,01.102,551
2023-02-16T03:54:41,42.805,6.029,CST-1368DR,4382,4890,11856,01.102,551
2023-02-16T03:57:43,42.805,6.029,CST-1368DR,4382,4892,11860,01.100,551
2023-02-16T04:00:44,42.805,6.029,CST-1368DR,4382,4892,11861,01.100,551
2023-02-16T04:03:46,42.805,6.029,CST-1368DR,4382,4892,11862,01.100,551
2023-02-16T04:06:47,42.805,6.029,CST-1368DR,4382,4892,11860,01.100,551
2023-02-16T04:09:49,42.805,6.029,CST-1368DR,4382,4892,11861,01.100,551
2023-02-16T04:12:51,42.805,6.029,CST-1368DR,4382,4890,11856,01.102,551
2023-02-16T04:15:52,42.805,6.029,CST-1368DR,4382,4891,11860,01.100,551
2023-02-16T04:18:54,42.805,6.029,CST-1368DR,4382,4892,11861,01.100,551
2023-02-16T04:21:55,42.805,6.029,CST-1368DR,4382,4888,11852,01.103,551
2023-02-16T04:24:57,42.805,6.029,CST-1368DR,4382,4891,11858,01.101,551
2023-02-16T04:27:58,42.805,6.029,CST-1368DR,4382,4889,11853,01.103,551
2023-02-16T04:31:00,42.805,6.029,CST-1368DR,4382,4889,11855,01.102,551
2023-02-16T04:34:02,42.805,6.029,CST-1368DR,4382,4890,11856,01.102,551
2023-02-16T04:37:03,42.805,6.029,CST-1368DR,4382,4890,11857,01.102,551
2023-02-16T04:40:05,42.805,6.029,CST-1368DR,4382,4890,11857,01.102,551
2023-02-16T04:43:06,42.805,6.029,CST-1368DR,4382,4890,11857,01.102,551
2023-02-16T04:46:08,42.805,6.029,CST-1368DR,4382,4891,11858,01.101,551
2023-02-16T04:49:09,42.805,6.029,CST-1368DR,4382,4892,11860,01.100,551
2023-02-16T04:52:11,42.805,6.029,CST-1368DR,4382,4891,11860,01.100,551
2023-02-16T04:55:13,42.805,6.029,CST-1368DR,4382,4890,11857,01.102,551
2023-02-16T04:58:14,42.805,6.029,CST-1368DR,4382,4893,11863,01.099,551
2023-02-16T05:01:16,42.805,6.029,CST-1368DR,4382,4891,11860,01.100,551
2023-02-16T05:04:17,42.805,6.029,CST-1368DR,4382,4891,11860,01.100,551
2023-02-16T05:07:19,42.805,6.029,CST-1368DR,4382,4893,11865,01.099,551
2023-02-16T05:10:20,42.805,6.029,CST-1368DR,4382,4894,11866,01.098,551
2023-02-16T05:13:22,42.805,6.029,CST-1368DR,4382,4893,11863,01.099,551
2023-02-16T05:16:24,42.805,6.029,CST-1368DR,4382,4894,11866,01.098,551
2023-02-16T05:19:25,42.805,6.029,CST-1368DR,4382,4895,11869,01.097,551
2023-02-16T05:22:27,42.805,6.029,CST-1368DR,4382,4893,11863,01.099,551
2023-02-16T05:25:28,42.805,6.029,CST-1368DR,4382,4894,11865,01.099,551
2023-02-16T05:28:30,42.805,6.029,CST-1368DR,4382,4892,11860,01.100,551
2023-02-16T05:31:32,42.805,6.029,CST-1368DR,4382,4894,11865,01.099,551
2023-02-16T05:34:33,42.805,6.029,CST-1368DR,4382,4893,11865,01.099,551
2023-02-16T05:37:35,42.805,6.029,CST-1368DR,4382,4892,11861,01.100,551
2023-02-16T05:40:36,42.805,6.029,CST-1368DR,4382,4892,11861,01.100,551
2023-02-16T05:43:38,42.805,6.029,CST-1368DR,4382,4890,11856,01.102,551
2023-02-16T05:46:39,42.805,6.029,CST-1368DR,4382,4892,11862,01.100,551
2023-02-16T05:49:41,42.805,6.029,CST-1368DR,4382,4892,11862,01.100,551
2023-02-16T05:52:43,42.805,6.029,CST-1368DR,4382,4891,11860,01.100,551
2023-02-16T05:55:44,42.805,6.029,CST-1368DR,4382,4892,11862,01.100,551
2023-02-16T05:58:46,42.805,6.029,CST-1368DR,4382,4893,11865,01.099,551
2023-02-16T06:01:47,42.805,6.029,CST-1368DR,4382,4893,11863,01.099,551
2023-02-16T06:04:49,42.805,6.029,CST-1368DR,4382,4892,11861,01.100,551
2023-02-16T06:07:51,42.805,6.029,CST-1368DR,4382,4891,11859,01.101,551
2023-02-16T06:10:52,42.805,6.029,CST-1368DR,4382,4890,11857,01.102,551
2023-02-16T06:13:54,42.805,6.029,CST-1368DR,4382,4891,11859,01.101,551
2023-02-16T06:16:55,42.805,6.029,CST-1368DR,4382,4890,11857,01.102,551
2023-02-16T06:19:57,42.805,6.029,CST-1368DR,4382,4890,11857,01.102,551
2023-02-16T06:22:58,42.805,6.029,CST-1368DR,4382,4891,11860,01.100,551
2023-02-16T06:26:00,42.805,6.029,CST-1368DR,4382,4890,11857,01.102,551
2023-02-16T06:29:02,42.805,6.029,CST-1368DR,4382,4892,11861,01.100,551
2023-02-16T06:32:03,42.805,6.029,CST-1368DR,4382,4891,11859,01.101,551
2023-02-16T06:35:05,42.805,6.029,CST-1368DR,4382,4892,11860,01.100,551
2023-02-16T06:38:06,42.805,6.029,CST-1368DR,4382,4891,11859,01.101,551
2023-02-16T06:41:08,42.805,6.029,CST-1368DR,4382,4891,11859,01.101,551
2023-02-16T06:44:09,42.805,6.029,CST-1368DR,4382,4893,11863,01.099,551
2023-02-16T06:47:11,42.805,6.029,CST-1368DR,4382,4892,11860,01.100,551
2023-02-16T06:50:13,42.805,6.029,CST-1368DR,4382,4890,11857,01.102,551
2023-02-16T06:53:14,42.805,6.029,CST-1368DR,4382,4890,11857,01.102,551
2023-02-16T06:56:16,42.805,6.029,CST-1368DR,4382,4891,11860,01.100,551
2023-02-16T06:59:17,42.805,6.029,CST-1368DR,4382,4892,11861,01.100,551
2023-02-16T07:02:19,42.805,6.029,CST-1368DR,4382,4889,11854,01.103,551
2023-02-16T07:05:20,42.805,6.029,CST-1368DR,4382,4891,11858,01.101,551
2023-02-16T07:08:22,42.805,6.029,CST-1368DR,4382,4891,11858,01.101,551
2023-02-16T07:11:24,42.805,6.029,CST-1368DR,4382,4890,11856,01.102,551
2023-02-16T07:14:25,42.805,6.029,CST-1368DR,4382,4890,11857,01.102,551
2023-02-16T07:17:27,42.805,6.029,CST-1368DR,4382,4886,11846,01.105,551
2023-02-16T07:20:28,42.805,6.029,CST-1368DR,4382,4891,11860,01.100,551
2023-02-16T07:23:30,42.805,6.029,CST-1368DR,4382,4888,11852,01.103,551
2023-02-16T07:26:32,42.805,6.029,CST-1368DR,4382,4888,11852,01.103,551
2023-02-16T07:29:33,42.805,6.029,CST-1368DR,4382,4890,11857,01.102,551
2023-02-16T07:32:35,42.805,6.029,CST-1368DR,4382,4889,11853,01.103,551
2023-02-16T07:35:36,42.805,6.029,CST-1368DR,4382,4889,11853,01.103,551
2023-02-16T07:38:38,42.805,6.029,CST-1368DR,4382,4890,11857,01.102,551
2023-02-16T07:41:39,42.805,6.029,CST-1368DR,4382,4890,11856,01.102,551
2023-02-16T07:44:41,42.805,6.029,CST-1368DR,4382,4889,11855,01.102,551
2023-02-16T07:47:43,42.805,6.029,CST-1368DR,4382,4890,11857,01.102,551
2023-02-16T07:50:44,42.805,6.029,CST-1368DR,4382,4887,11849,01.104,551
2023-02-16T07:53:46,42.805,6.029,CST-1368DR,4382,4890,11857,01.102,551
2023-02-16T07:56:47,42.805,6.029,CST-1368DR,4382,4888,11852,01.103,551
2023-02-16T07:59:49,42.805,6.029,CST-1368DR,4382,4890,11856,01.102,551
2023-02-16T08:02:50,42.805,6.029,CST-1368DR,4382,4889,11854,01.103,551
2023-02-16T08:05:52,42.805,6.029,CST-1368DR,4382,4890,11857,01.102,551
2023-02-16T08:08:54,42.805,6.029,CST-1368DR,4382,4891,11858,01.101,551
2023-02-16T08:11:55,42.805,6.029,CST-1368DR,4382,4892,11862,01.100,551
2023-02-16T08:14:57,42.805,6.029,CST-1368DR,4382,4890,11857,01.102,551
2023-02-16T08:17:58,42.805,6.029,CST-1368DR,4382,4890,11857,01.102,551
2023-02-16T08:21:00,42.805,6.029,CST-1368DR,4382,4892,11862,01.100,551
2023-02-16T08:24:02,42.805,6.029,CST-1368DR,4382,4891,11859,01.101,551
2023-02-16T08:27:03,42.805,6.029,CST-1368DR,4382,4890,11856,01.102,551
2023-02-16T08:30:05,42.805,6.029,CST-1368DR,4382,4890,11856,01.102,551
2023-02-16T08:33:06,42.805,6.029,CST-1368DR,4382,4890,11857,01.102,551
2023-02-16T08:36:08,42.805,6.029,CST-1368DR,4382,4890,11857,01.102,551
2023-02-16T08:39:09,42.805,6.029,CST-1368DR,4382,4889,11854,01.103,551
2023-02-16T08:42:11,42.805,6.029,CST-1368DR,4382,4889,11855,01.102,551
2023-02-16T08:45:13,42.805,6.029,CST-1368DR,4382,4890,11857,01.102,551
2023-02-16T08:48:14,42.805,6.029,CST-1368DR,4382,4890,11857,01.102,551
2023-02-16T08:51:16,42.805,6.029,CST-1368DR,4382,4890,11857,01.102,551
2023-02-16T08:54:17,42.805,6.029,CST-1368DR,4382,4891,11859,01.101,551
2023-02-16T08:57:19,42.805,6.029,CST-1368DR,4382,4889,11854,01.103,551
2023-02-16T09:00:20,42.805,6.029,CST-1368DR,4382,4892,11861,01.100,551
2023-02-16T09:03:22,42.805,6.029,CST-1368DR,4382,4891,11858,01.101,551
2023-02-16T09:06:24,42.805,6.029,CST-1368DR,4382,4891,11858,01.101,551
2023-02-16T09:09:25,42.805,6.029,CST-1368DR,4382,4891,11859,01.101,551
2023-02-16T09:12:27,42.805,6.029,CST-1368DR,4382,4892,11861,01.100,551
2023-02-16T09:15:28,42.805,6.029,CST-1368DR,4382,4891,11859,01.101,551
2023-02-16T09:18:30,42.805,6.029,CST-1368DR,4382,4892,11861,01.100,551
2023-02-16T09:21:32,42.805,6.029,CST-1368DR,4382,4891,11858,01.101,551
2023-02-16T09:24:33,42.805,6.029,CST-1368DR,4382,4888,11853,01.103,551
2023-02-16T09:27:35,42.805,6.029,CST-1368DR,4382,4890,11857,01.102,551
2023-02-16T09:30:36,42.805,6.029,CST-1368DR,4382,4890,11857,01.102,551
2023-02-16T09:33:38,42.805,6.029,CST-1368DR,4382,4889,11854,01.103,551
2023-02-16T09:36:39,42.805,6.029,CST-1368DR,4382,4890,11857,01.102,551
2023-02-16T09:39:41,42.805,6.029,CST-1368DR,4382,4889,11855,01.102,551
2023-02-16T09:42:43,42.805,6.029,CST-1368DR,4382,4890,11857,01.102,551
2023-02-16T09:45:44,42.805,6.029,CST-1368DR,4382,4889,11855,01.102,551
2023-02-16T09:48:46,42.805,6.029,CST-1368DR,4382,4890,11857,01.102,551
2023-02-16T09:51:47,42.805,6.029,CST-1368DR,4382,4890,11857,01.102,551
2023-02-16T09:54:49,42.805,6.029,CST-1368DR,4382,4889,11855,01.102,551
2023-02-16T09:57:50,42.805,6.029,CST-1368DR,4382,4890,11857,01.102,551
2023-02-16T10:00:52,42.805,6.029,CST-1368DR,4382,4891,11858,01.101,551
2023-02-16T10:03:54,42.805,6.029,CST-1368DR,4382,4888,11853,01.103,551
2023-02-16T10:06:55,42.805,6.029,CST-1368DR,4382,4889,11855,01.102,551
2023-02-16T10:09:57,42.805,6.029,CST-1368DR,4382,4888,11853,01.103,551
2023-02-16T10:12:58,42.805,6.029,CST-1368DR,4382,4890,11856,01.102,551
2023-02-16T10:16:00,42.805,6.029,CST-1368DR,4382,4889,11854,01.103,551
2023-02-16T10:19:02,42.805,6.029,CST-1368DR,4382,4890,11856,01.102,551
2023-02-16T10:22:03,42.805,6.029,CST-1368DR,4382,4889,11855,01.102,551
2023-02-16T10:25:05,42.805,6.029,CST-1368DR,4382,4891,11858,01.101,551
2023-02-16T10:28:06,42.805,6.029,CST-1368DR,4382,4890,11856,01.102,551
2023-02-16T10:31:08,42.805,6.029,CST-1368DR,4382,4890,11857,01.102,551
2023-02-16T10:34:09,42.805,6.029,CST-1368DR,4382,4891,11858,01.101,551
2023-02-16T10:37:11,42.805,6.029,CST-1368DR,4382,4889,11854,01.103,551
2023-02-16T10:40:13,42.805,6.029,CST-1368DR,4382,4891,11859,01.101,551
2023-02-16T10:43:14,42.805,6.029,CST-1368DR,4382,4891,11859,01.101,551
2023-02-16T10:46:16,42.805,6.029,CST-1368DR,4382,4892,11860,01.100,551
2023-02-16T10:49:17,42.805,6.029,CST-1368DR,4382,4891,11859,01.101,551
2023-02-16T10:52:19,42.805,6.029,CST-1368DR,4382,4890,11857,01.102,551
2023-02-16T10:55:20,42.805,6.029,CST-1368DR,4382,4894,11866,01.098,551
2023-02-16T10:58:22,42.805,6.029,CST-1368DR,4382,4892,11862,01.100,551
2023-02-16T11:01:24,42.805,6.029,CST-1368DR,4382,4892,11862,01.100,551
2023-02-16T11:04:25,42.805,6.029,CST-1368DR,4382,4892,11861,01.100,551
2023-02-16T11:07:27,42.805,6.029,CST-1368DR,4382,4890,11856,01.102,551
2023-02-16T11:10:28,42.805,6.029,CST-1368DR,4382,4892,11860,01.100,551
2023-02-16T11:13:30,42.805,6.029,CST-1368DR,4382,4891,11859,01.101,551
2023-02-16T11:16:31,42.805,6.029,CST-1368DR,4382,4889,11855,01.102,551
2023-02-16T11:19:33,42.805,6.029,CST-1368DR,4382,4891,11858,01.101,551
2023-02-16T11:22:35,42.805,6.029,CST-1368DR,4382,4891,11859,01.101,551
2023-02-16T11:25:36,42.805,6.029,CST-1368DR,4382,4892,11860,01.100,551
2023-02-16T11:28:38,42.805,6.029,CST-1368DR,4382,4891,11859,01.101,551
2023-02-16T11:31:39,42.805,6.029,CST-1368DR,4382,4891,11859,01.101,551
2023-02-16T11:34:41,42.805,6.029,CST-1368DR,4382,4891,11860,01.100,551
2023-02-16T11:37:43,42.805,6.029,CST-1368DR,4382,4891,11859,01.101,551
2023-02-16T11:40:44,42.805,6.029,CST-1368DR,4382,4890,11857,01.102,551
2023-02-16T11:43:46,42.805,6.029,CST-1368DR,4382,4891,11860,01.100,551
2023-02-16T11:46:47,42.805,6.029,CST-1368DR,4382,4892,11861,01.100,551
2023-02-16T11:49:49,42.805,6.029,CST-1368DR,4382,4890,11856,01.102,551
2023-02-16T11:52:50,42.805,6.029,CST-1368DR,4382,4891,11858,01.101,551
2023-02-16T11:55:52,42.805,6.029,CST-1368DR,4382,4892,11862,01.100,551
2023-02-16T11:58:54,42.805,6.029,CST-1368DR,4382,4892,11861,01.100,551
2023-02-16T12:01:55,42.805,6.029,CST-1368DR,4382,4892,11862,01.100,551
2023-02-16T12:04:57,42.805,6.029,CST-1368DR,4382,4891,11859,01.101,551
2023-02-16T12:07:58,42.805,6.029,CST-1368DR,4382,4889,11854,01.103,551
2023-02-16T12:11:00,42.805,6.029,CST-1368DR,4382,4892,11862,01.100,551
2023-02-16T12:14:02,42.805,6.029,CST-1368DR,4382,4892,11861,01.100,551
2023-02-16T12:17:03,42.805,6.029,CST-1368DR,4382,4892,11860,01.100,551
2023-02-16T12:20:05,42.805,6.029,CST-1368DR,4382,4892,11861,01.100,551
2023-02-16T12:23:06,42.805,6.029,CST-1368DR,4382,4889,11854,01.103,551
2023-02-16T12:26:08,42.805,6.029,CST-1368DR,4382,4891,11859,01.101,551
2023-02-16T12:29:09,42.805,6.029,CST-1368DR,4382,4892,11862,01.100,551
2023-02-16T12:32:11,42.805,6.029,CST-1368DR,4382,4889,11853,01.103,551
2023-02-16T12:35:13,42.805,6.029,CST-1368DR,4382,4891,11859,01.101,551
2023-02-16T12:38:14,42.805,6.029,CST-1368DR,4382,4892,11860,01.100,551
2023-02-16T12:41:16,42.805,6.029,CST-1368DR,4382,4892,11862,01.100,551
2023-02-16T12:44:17,42.805,6.029,CST-1368DR,4382,4891,11858,01.101,551
2023-02-16T12:47:19,42.805,6.029,CST-1368DR,4382,4889,11855,01.102,551
2023-02-16T12:50:20,42.805,6.029,CST-1368DR,4382,4891,11859,01.101,551
2023-02-16T12:53:22,42.805,6.029,CST-1368DR,4382,4889,11853,01.103,551
2023-02-16T12:56:24,42.805,6.029,CST-1368DR,4382,4889,11854,01.103,551
2023-02-16T12:59:25,42.805,6.029,CST-1368DR,4382,4890,11857,01.102,551
2023-02-16T13:02:27,42.805,6.029,CST-1368DR,4382,4889,11855,01.102,551
2023-02-16T13:05:28,42.805,6.029,CST-1368DR,4382,4890,11857,01.102,551
2023-02-16T13:08:30,42.805,6.029,CST-1368DR,4382,4888,11852,01.103,551
2023-02-16T13:11:32,42.805,6.029,CST-1368DR,4382,4889,11854,01.103,551
2023-02-16T13:14:33,42.805,6.029,CST-1368DR,4382,4891,11858,01.101,551
2023-02-16T13:17:35,42.805,6.029,CST-1368DR,4382,4890,11857,01.102,551
2023-02-16T13:20:36,42.805,6.029,CST-1368DR,4382,4892,11860,01.100,551
2023-02-16T13:23:38,42.805,6.029,CST-1368DR,4382,4891,11860,01.100,551
2023-02-16T13:26:39,42.805,6.029,CST-1368DR,4382,4890,11857,01.102,551
2023-02-16T13:29:41,42.805,6.029,CST-1368DR,4382,4891,11859,01.101,551
2023-02-16T13:32:43,42.805,6.029,CST-1368DR,4382,4891,11859,01.101,551
2023-02-16T13:35:44,42.805,6.029,CST-1368DR,4382,4891,11860,01.100,551
2023-02-16T13:38:46,42.805,6.029,CST-1368DR,4382,4889,11854,01.103,551
2023-02-16T13:41:47,42.805,6.029,CST-1368DR,4382,4888,11852,01.103,551
2023-02-16T13:44:49,42.805,6.029,CST-1368DR,4382,4889,11854,01.103,551
2023-02-16T13:47:50,42.805,6.029,CST-1368DR,4382,4889,11853,01.103,551
2023-02-16T13:50:52,42.805,6.029,CST-1368DR,4382,4889,11853,01.103,551
2023-02-16T13:53:54,42.805,6.029,CST-1368DR,4382,4889,11853,01.103,551
2023-02-16T13:56:55,42.805,6.029,CST-1368DR,4382,4889,11853,01.103,551
2023-02-16T13:59:57,42.805,6.029,CST-1368DR,4382,4889,11855,01.102,551
2023-02-16T14:02:58,42.805,6.029,CST-1368DR,4382,4889,11854,01.103,551
2023-02-16T14:06:00,42.805,6.029,CST-1368DR,4382,4889,11854,01.103,551
2023-02-16T14:09:02,42.805,6.029,CST-1368DR,4382,4889,11854,01.103,551
2023-02-16T14:12:03,42.805,6.029,CST-1368DR,4382,4889,11854,01.103,551
2023-02-16T14:15:05,42.805,6.029,CST-1368DR,4382,4892,11861,01.100,551
2023-02-16T14:18:06,42.805,6.029,CST-1368DR,4382,4891,11859,01.101,551
2023-02-16T14:21:08,42.805,6.029,CST-1368DR,4382,4885,11845,01.106,551
2023-02-16T14:24:09,42.805,6.029,CST-1368DR,4382,4894,11867,01.098,551
2023-02-16T14:27:11,42.805,6.029,CST-1368DR,4382,4890,11856,01.102,551
2023-02-16T14:30:13,42.805,6.029,CST-1368DR,4382,4890,11857,01.102,551
2023-02-16T14:33:14,42.805,6.029,CST-1368DR,4382,4890,11857,01.102,551
2023-02-16T14:36:16,42.805,6.029,CST-1368DR,4382,4889,11855,01.102,551
2023-02-16T14:39:17,42.805,6.029,CST-1368DR,4382,4890,11856,01.102,551
2023-02-16T14:42:19,42.805,6.029,CST-1368DR,4382,4891,11859,01.101,551
2023-02-16T14:45:20,42.805,6.029,CST-1368DR,4382,4891,11859,01.101,551
2023-02-16T14:48:22,42.805,6.029,CST-1368DR,4382,4889,11854,01.103,551
2023-02-16T14:51:24,42.805,6.029,CST-1368DR,4382,4889,11855,01.102,551
2023-02-16T14:54:25,42.805,6.029,CST-1368DR,4382,4889,11854,01.103,551
2023-02-16T14:57:27,42.805,6.029,CST-1368DR,4382,4886,11847,01.105,551
2023-02-16T15:00:28,42.805,6.029,CST-1368DR,4382,4892,11860,01.100,551
2023-02-16T15:03:30,42.805,6.029,CST-1368DR,4382,4891,11860,01.100,551
2023-02-16T15:06:32,42.805,6.029,CST-1368DR,4382,4891,11858,01.101,551
2023-02-16T15:09:33,42.805,6.029,CST-1368DR,4382,4893,11863,01.099,551
2023-02-16T15:12:35,42.805,6.029,CST-1368DR,4382,4892,11862,01.100,551
2023-02-16T15:15:36,42.805,6.029,CST-1368DR,4382,4891,11860,01.100,551
2023-02-16T15:18:38,42.805,6.029,CST-1368DR,4382,4894,11865,01.099,551
2023-02-16T15:21:39,42.805,6.029,CST-1368DR,4382,4895,11868,01.098,551
2023-02-16T15:24:41,42.805,6.029,CST-1368DR,4382,4893,11865,01.099,551
2023-02-16T15:27:43,42.805,6.029,CST-1368DR,4382,4895,11869,01.097,551
2023-02-16T15:30:44,42.805,6.029,CST-1368DR,4382,4893,11865,01.099,551
2023-02-16T15:33:46,42.805,6.029,CST-1368DR,4382,4893,11863,01.099,551
2023-02-16T15:36:47,42.805,6.029,CST-1368DR,4382,4892,11862,01.100,551
2023-02-16T15:39:49,42.805,6.029,CST-1368DR,4382,4892,11862,01.100,551
2023-02-16T15:42:50,42.805,6.029,CST-1368DR,4382,4893,11863,01.099,551
2023-02-16T15:45:52,42.805,6.029,CST-1368DR,4382,4892,11861,01.100,551
2023-02-16T15:48:54,42.805,6.029,CST-1368DR,4382,4891,11858,01.101,551
2023-02-16T15:51:55,42.805,6.029,CST-1368DR,4382,4895,11870,01.097,551
2023-02-16T15:54:57,42.805,6.029,CST-1368DR,4382,4894,11866,01.098,551
2023-02-16T15:57:58,42.805,6.029,CST-1368DR,4382,4894,11867,01.098,551
2023-02-16T16:01:00,42.805,6.029,CST-1368DR,4382,4893,11863,01.099,551
2023-02-16T16:04:02,42.805,6.029,CST-1368DR,4382,4894,11867,01.098,551
2023-02-16T16:07:03,42.805,6.029,CST-1368DR,4382,4893,11863,01.099,551
2023-02-16T16:10:05,42.805,6.029,CST-1368DR,4382,4894,11865,01.099,551
2023-02-16T16:13:06,42.805,6.029,CST-1368DR,4382,4893,11863,01.099,551
2023-02-16T16:16:08,42.805,6.029,CST-1368DR,4382,4894,11867,01.098,551
2023-02-16T16:19:09,42.805,6.029,CST-1368DR,4381,4893,11867,01.098,551
2023-02-16T16:22:11,42.805,6.029,CST-1368DR,4382,4894,11866,01.098,551
2023-02-16T16:25:13,42.805,6.029,CST-1368DR,4382,4896,11871,01.097,551
2023-02-16T16:28:14,42.805,6.029,CST-1368DR,4382,4894,11867,01.098,551
2023-02-16T16:31:16,42.805,6.029,CST-1368DR,4382,4895,11868,01.098,551
2023-02-16T16:34:17,42.805,6.029,CST-1368DR,4382,4895,11868,01.098,551
2023-02-16T16:37:19,42.805,6.029,CST-1368DR,4382,4894,11867,01.098,551